星链-36071(STARLINK-36071)

导读 | 豆包AI

STARLINK-36071卫星由美国于2025年12月1日发射,属于太空探索技术公司(SpaceX)的星链(Starlink)项目。作为星链星座的成员,它主要服务于全球卫星互联网组网,为偏远地区、海洋航空等场景提供低延迟、高速率的宽带互联网接入服务,进一步完善了星链低轨星座的覆盖能力。

基本信息
目录编号:
66808
目录名称:
STARLINK-36071
国际标识:
2025-278T
轨道中心:
EARTH
卫星名称:
星链-36071
卫星全名:
星链-36071(STARLINK-36071)
卫星状态:
在轨 (已飞行103 天)
发射日期:
2025-12-01 UTC
国别 :
美国 (US)
星等 :
--
轨道信息
数据来源 国际轨道数据
星历时间: 2026-03-13T17:57:02+0800
22小时前
查看轨道信息
半长轴: 6861.148km
偏心率: 0.0001561
轨道倾角: 43.000°
近地点辐角 256.594°
升交点赤经 92.906°
平近点角 103.474°
近地点: 481.939km
远地点: 484.083km
周期: 94.266分钟
每日圈数: 15.27593
详细信息
固有亮度:
5
最大亮度:
2.5
卫星平台:
Starlink V1.0
覆盖范围:
全球
运营商:
太空探索技术公司
运营商所在国:
美国
制造商(研发单位):
太空探索技术公司
制造商所在国:
美国
使用方式:
暂无
卫星简介
Starlink 计划是 SpaceX 推出的全球卫星互联网项目,通过发射低轨道卫星,为全球尤其是偏远地区提供高速、低延迟的互联网服务。自 2019 年起,Starlink 已部署数千颗卫星,旨在缩小全球数字鸿沟,推动互联网普及。该项目还为军事、航空等行业提供通信支持,带来广泛经济效益。
2D轨道图
3D轨道图
轨道高度分析图
轨道倾角分析图
轨道综合分析图
查看轨道综合分析图